| time (UTC) | temp C | wind direction | speed KPH | gust KPH | rain 1hr cm | rain 24hr cm | rain mn cm | humidity % | barometer mb |
| 20260510190248 | 28 | 149 | 1.6 | 9.7 | 0.00 | 0.00 | 0.00 | 39 | 1013.9 |
| 20260510185312 | 28 | 136 | 1.6 | 9.7 | 0.00 | 0.00 | 0.00 | 39 | 1013.8 |
| 20260510184317 | 30 | 190 | 1.6 | 8.0 | 0.00 | 0.00 | 0.00 | 38 | 1013.8 |
| 20260510183152 | 30 | 341 | 0.0 | 6.4 | 0.00 | 0.00 | 0.00 | 36 | 1013.9 |
| 20260510182157 | 30 | 141 | 1.6 | 11.3 | 0.00 | 0.00 | 0.00 | 38 | 1013.9 |
| 20260510181157 | 29 | 139 | 3.2 | 11.3 | 0.00 | 0.00 | 0.00 | 42 | 1014.0 |
| 20260510180221 | 29 | 102 | 3.2 | 9.7 | 0.00 | 0.00 | 0.00 | 41 | 1014.1 |
| 20260510175242 | 29 | 65 | 1.6 | 6.4 | 0.00 | 0.00 | 0.00 | 40 | 1014.2 |
| 20260510174142 | 28 | 141 | 3.2 | 6.4 | 0.00 | 0.00 | 0.00 | 40 | 1014.3 |
| 20260510173113 | 28 | 151 | 1.6 | 8.0 | 0.00 | 0.00 | 0.00 | 48 | 1014.4 |
| 20260510172116 | 28 | 175 | 3.2 | 8.0 | 0.00 | 0.00 | 0.00 | 44 | 1014.5 |
| 20260510171116 | 28 | 113 | 1.6 | 8.0 | 0.00 | 0.00 | 0.00 | 49 | 1014.5 |
| 20260510170004 | 27 | 136 | 1.6 | 8.0 | 0.00 | 0.00 | 0.00 | 50 | 1014.6 |
| 20260510164950 | 27 | 351 | 1.6 | 9.7 | 0.00 | 0.00 | 0.00 | 54 | 1014.7 |
| 20260510163821 | 27 | 196 | 1.6 | 9.7 | 0.00 | 0.00 | 0.00 | 54 | 1014.7 |
| 20260510162816 | 27 | 132 | 1.6 | 9.7 | 0.00 | 0.00 | 0.00 | 56 | 1014.7 |
| 20260510161714 | 26 | 163 | 1.6 | 8.0 | 0.00 | 0.00 | 0.00 | 62 | 1014.5 |
| 20260510160717 | 26 | 109 | 0.0 | 11.3 | 0.00 | 0.00 | 0.00 | 62 | 1014.6 |
| 20260510155709 | 26 | 88 | 1.6 | 11.3 | 0.00 | 0.00 | 0.00 | 65 | 1014.5 |
| 20260510154648 | 26 | 144 | 1.6 | 8.0 | 0.00 | 0.00 | 0.00 | 66 | 1014.6 |
| 20260510153642 | 26 | 177 | 1.6 | 8.0 | 0.00 | 0.00 | 0.00 | 67 | 1014.6 |
| 20260510152622 | 25 | 73 | 1.6 | 6.4 | 0.00 | 0.00 | 0.00 | 71 | 1014.6 |
| 20260510151507 | 25 | 182 | 1.6 | 8.0 | 0.00 | 0.00 | 0.00 | 70 | 1014.6 |
| 20260510150515 | 24 | 152 | 1.6 | 8.0 | 0.00 | 0.00 | 0.00 | 72 | 1014.6 |
| 20260510145515 | 23 | 165 | 0.0 | 4.8 | 0.00 | 0.00 | 0.00 | 74 | 1014.4 |
| 20260510144334 | 22 | 136 | 1.6 | 11.3 | 0.00 | 0.00 | 0.00 | 76 | 1014.6 |
| 20260510143304 | 22 | 168 | 3.2 | 11.3 | 0.00 | 0.00 | 0.00 | 78 | 1014.6 |
| 20260510142317 | 22 | 142 | 3.2 | 9.7 | 0.00 | 0.00 | 0.00 | 78 | 1014.7 |
| 20260510141200 | 22 | 174 | 1.6 | 8.0 | 0.00 | 0.00 | 0.00 | 79 | 1014.5 |
| 20260510140105 | 21 | 128 | 1.6 | 4.8 | 0.00 | 0.00 | 0.00 | 81 | 1014.6 |
| 20260510135052 | 21 | 124 | 1.6 | 6.4 | 0.00 | 0.00 | 0.00 | 82 | 1014.5 |
| 20260510134018 | 21 | 123 | 1.6 | 6.4 | 0.00 | 0.00 | 0.00 | 84 | 1014.5 |
| 20260510133010 | 20 | 144 | 1.6 | 4.8 | 0.00 | 0.00 | 0.00 | 87 | 1014.5 |
| 20260510132005 | 20 | 183 | 0.0 | 3.2 | 0.00 | 0.00 | 0.00 | 89 | 1014.5 |
| 20260510130959 | 19 | 190 | 0.0 | 1.6 | 0.00 | 0.00 | 0.00 | 89 | 1014.6 |
| 20260510125942 | 18 | 190 | 0.0 | 0.0 | 0.00 | 0.00 | 0.00 | 87 | 1014.6 |
| 20260510125001 | 17 | 190 | 0.0 | 0.0 | 0.00 | 0.00 | 0.00 | 87 | 1014.5 |
| 20260510123927 | 16 | 190 | 0.0 | 0.0 | 0.00 | 0.00 | 0.00 | 87 | 1014.4 |
| 20260510122858 | 15 | 202 | 0.0 | 0.0 | 0.00 | 0.00 | 0.00 | 88 | 1014.4 |
| 20260510121732 | 13 | 202 | 0.0 | 0.0 | 0.00 | 0.00 | 0.00 | 88 | 1014.1 |
| 20260510120608 | 12 | 310 | 0.0 | 0.0 | 0.00 | 0.00 | 0.00 | 89 | 1014.0 |
| 20260510115544 | 12 | 310 | 0.0 | 0.0 | 0.00 | 0.00 | 0.00 | 89 | 1014.0 |
| 20260510114548 | 11 | 288 | 0.0 | 0.0 | 0.00 | 0.00 | 0.00 | 89 | 1013.7 |
| 20260510113436 | 11 | 288 | 0.0 | 0.0 | 0.00 | 0.00 | 0.00 | 90 | 1013.5 |
| 20260510112409 | 11 | 288 | 0.0 | 0.0 | 0.00 | 0.00 | 0.00 | 90 | 1013.2 |
| 20260510111238 | 11 | 288 | 0.0 | 0.0 | 0.00 | 0.00 | 0.00 | 90 | 1013.1 |
| 20260510110225 | 11 | 288 | 0.0 | 0.0 | 0.00 | 0.00 | 0.00 | 90 | 1013.0 |
| 20260510105242 | 11 | 288 | 0.0 | 0.0 | 0.00 | 0.00 | 0.00 | 90 | 1012.8 |
| 20260510104237 | 11 | 211 | 0.0 | 0.0 | 0.00 | 0.00 | 0.00 | 90 | 1012.6 |
| 20260510103142 | 11 | 211 | 0.0 | 0.0 | 0.00 | 0.00 | 0.00 | 90 | 1012.5 |
| 20260510102154 | 11 | 211 | 0.0 | 0.0 | 0.00 | 0.00 | 0.00 | 90 | 1012.3 |
| 20260510101153 | 11 | 211 | 0.0 | 0.0 | 0.00 | 0.00 | 0.00 | 90 | 1012.3 |
| 20260510100136 | 11 | 211 | 0.0 | 0.0 | 0.00 | 0.00 | 0.00 | 90 | 1012.2 |
| 20260510095128 | 11 | 211 | 0.0 | 0.0 | 0.00 | 0.00 | 0.00 | 90 | 1012.1 |
| 20260510094016 | 11 | 211 | 0.0 | 0.0 | 0.00 | 0.00 | 0.00 | 90 | 1012.2 |
| 20260510093015 | 11 | 211 | 0.0 | 0.0 | 0.00 | 0.00 | 0.00 | 90 | 1012.0 |
| 20260510091953 | 11 | 211 | 0.0 | 0.0 | 0.00 | 0.00 | 0.00 | 90 | 1011.9 |
| 20260510090955 | 11 | 211 | 0.0 | 0.0 | 0.00 | 0.00 | 0.00 | 90 | 1011.8 |
| 20260510085858 | 11 | 211 | 0.0 | 0.0 | 0.00 | 0.00 | 0.00 | 90 | 1011.9 |
| 20260510084720 | 11 | 211 | 0.0 | 0.0 | 0.00 | 0.00 | 0.00 | 90 | 1011.9 |
| 20260510083715 | 11 | 211 | 0.0 | 0.0 | 0.00 | 0.00 | 0.00 | 90 | 1011.8 |
| 20260510082718 | 11 | 211 | 0.0 | 0.0 | 0.00 | 0.00 | 0.00 | 90 | 1011.7 |
| 20260510081722 | 11 | 211 | 0.0 | 0.0 | 0.00 | 0.00 | 0.00 | 90 | 1011.7 |
| 20260510080650 | 11 | 211 | 0.0 | 0.0 | 0.00 | 0.00 | 0.00 | 90 | 1011.7 |
| 20260510075509 | 11 | 211 | 0.0 | 0.0 | 0.00 | 0.00 | 0.00 | 90 | 1011.8 |
| 20260510074326 | 11 | 211 | 0.0 | 0.0 | 0.00 | 0.00 | 0.00 | 90 | 1011.9 |
| 20260510073309 | 11 | 211 | 0.0 | 0.0 | 0.00 | 0.00 | 0.00 | 90 | 1011.7 |
| 20260510072309 | 11 | 211 | 0.0 | 0.0 | 0.00 | 0.00 | 0.00 | 90 | 1011.5 |
| 20260510071321 | 11 | 211 | 0.0 | 0.0 | 0.00 | 0.00 | 0.00 | 90 | 1011.4 |
| 20260510070255 | 11 | 211 | 0.0 | 0.0 | 0.00 | 0.00 | 0.00 | 90 | 1011.4 |
| 20260510065318 | 11 | 211 | 0.0 | 0.0 | 0.00 | 0.00 | 0.00 | 91 | 1011.3 |
| 20260510064317 | 11 | 211 | 0.0 | 0.0 | 0.00 | 0.00 | 0.00 | 91 | 1011.2 |
| 20260510063320 | 12 | 211 | 0.0 | 0.0 | 0.00 | 0.00 | 0.00 | 91 | 1011.2 |
| 20260510062225 | 12 | 211 | 0.0 | 0.0 | 0.00 | 0.00 | 0.00 | 91 | 1011.3 |
| 20260510061129 | 12 | 211 | 0.0 | 0.0 | 0.00 | 0.00 | 0.00 | 91 | 1011.2 |
| 20260510060105 | 12 | 211 | 0.0 | 0.0 | 0.00 | 0.00 | 0.00 | 91 | 1011.2 |
| 20260510055124 | 12 | 211 | 0.0 | 0.0 | 0.00 | 0.00 | 0.00 | 91 | 1011.4 |
| 20260510054135 | 12 | 211 | 0.0 | 0.0 | 0.00 | 0.00 | 0.00 | 91 | 1011.3 |
| 20260510053126 | 12 | 211 | 0.0 | 0.0 | 0.00 | 0.00 | 0.00 | 91 | 1011.3 |
| 20260510052124 | 12 | 211 | 0.0 | 0.0 | 0.00 | 0.00 | 0.00 | 91 | 1011.3 |
| 20260510051138 | 12 | 211 | 0.0 | 0.0 | 0.00 | 0.00 | 0.00 | 91 | 1011.2 |
| 20260510050105 | 12 | 211 | 0.0 | 0.0 | 0.00 | 0.00 | 0.00 | 91 | 1011.2 |
| 20260510044919 | 12 | 211 | 0.0 | 0.0 | 0.00 | 0.00 | 0.00 | 91 | 1011.1 |
| 20260510043859 | 12 | 211 | 0.0 | 0.0 | 0.00 | 0.00 | 0.00 | 91 | 1011.0 |
| 20260510042843 | 12 | 211 | 0.0 | 0.0 | 0.00 | 0.00 | 0.00 | 91 | 1011.1 |
| 20260510041856 | 13 | 211 | 0.0 | 0.0 | 0.00 | 0.00 | 0.00 | 91 | 1011.0 |
| 20260510040800 | 13 | 211 | 0.0 | 0.0 | 0.00 | 0.00 | 0.00 | 90 | 1011.2 |
| 20260510035750 | 13 | 211 | 0.0 | 0.0 | 0.00 | 0.00 | 0.00 | 90 | 1011.2 |
| 20260510034744 | 13 | 211 | 0.0 | 0.0 | 0.00 | 0.00 | 0.00 | 90 | 1011.1 |
| 20260510033623 | 13 | 211 | 0.0 | 0.0 | 0.00 | 0.00 | 0.00 | 90 | 1011.2 |
| 20260510032554 | 13 | 211 | 0.0 | 0.0 | 0.00 | 0.00 | 0.00 | 90 | 1011.2 |
| 20260510031529 | 13 | 211 | 0.0 | 0.0 | 0.00 | 0.00 | 0.00 | 90 | 1011.1 |
| 20260510030548 | 14 | 211 | 0.0 | 0.0 | 0.00 | 0.00 | 0.00 | 89 | 1010.9 |
| 20260510025547 | 14 | 211 | 0.0 | 0.0 | 0.00 | 0.00 | 0.00 | 88 | 1010.9 |
| 20260510024601 | 15 | 211 | 0.0 | 0.0 | 0.00 | 0.00 | 0.00 | 88 | 1010.7 |
| 20260510023422 | 15 | 211 | 0.0 | 0.0 | 0.00 | 0.00 | 0.00 | 87 | 1010.7 |
| 20260510022442 | 15 | 211 | 0.0 | 0.0 | 0.00 | 0.00 | 0.00 | 86 | 1010.5 |
| 20260510021421 | 15 | 211 | 0.0 | 0.0 | 0.00 | 0.00 | 0.00 | 85 | 1010.4 |
| 20260510020354 | 16 | 211 | 0.0 | 0.0 | 0.00 | 0.00 | 0.00 | 84 | 1010.2 |
| 20260510015209 | 16 | 211 | 0.0 | 0.0 | 0.00 | 0.00 | 0.00 | 82 | 1010.0 |
| 20260510014217 | 16 | 211 | 0.0 | 0.0 | 0.00 | 0.00 | 0.00 | 81 | 1009.9 |
| 20260510013200 | 17 | 211 | 0.0 | 0.0 | 0.00 | 0.00 | 0.00 | 80 | 1009.8 |
| 20260510012144 | 17 | 211 | 0.0 | 0.0 | 0.00 | 0.00 | 0.00 | 78 | 1009.7 |
| 20260510011023 | 18 | 210 | 0.0 | 0.0 | 0.00 | 0.00 | 0.00 | 77 | 1009.4 |
| 20260510005924 | 18 | 211 | 0.0 | 0.0 | 0.00 | 0.00 | 0.00 | 75 | 1009.4 |
| 20260510004939 | 19 | 211 | 0.0 | 0.0 | 0.00 | 0.00 | 0.00 | 73 | 1009.2 |
| 20260510004003 | 20 | 165 | 0.0 | 0.0 | 0.00 | 0.00 | 0.00 | 71 | 1009.1 |
| 20260510003003 | 20 | 165 | 0.0 | 0.0 | 0.00 | 0.00 | 0.00 | 70 | 1009.0 |
| 20260510002024 | 21 | 310 | 0.0 | 0.0 | 0.00 | 0.00 | 0.00 | 67 | 1008.9 |
| 20260510001010 | 22 | 169 | 0.0 | 0.0 | 0.00 | 0.00 | 0.00 | 64 | 1008.9 |
| 20260509235947 | 22 | 169 | 0.0 | 0.0 | 0.00 | 0.00 | 0.00 | 58 | 1008.9 |
| 20260509234955 | 23 | 169 | 0.0 | 0.0 | 0.00 | 0.00 | 0.00 | 54 | 1008.8 |
| 20260509233925 | 24 | 169 | 0.0 | 0.0 | 0.00 | 0.00 | 0.00 | 52 | 1008.8 |
| 20260509232812 | 25 | 169 | 0.0 | 1.6 | 0.00 | 0.00 | 0.00 | 46 | 1008.6 |
| 20260509231815 | 25 | 169 | 0.0 | 0.0 | 0.00 | 0.00 | 0.00 | 39 | 1008.6 |
| 20260509230837 | 26 | 169 | 0.0 | 3.2 | 0.00 | 0.00 | 0.00 | 40 | 1008.6 |
| 20260509225851 | 27 | 243 | 0.0 | 0.0 | 0.00 | 0.00 | 0.00 | 41 | 1008.4 |
| 20260509224859 | 27 | 244 | 0.0 | 3.2 | 0.00 | 0.00 | 0.00 | 42 | 1008.4 |
| 20260509223905 | 27 | 338 | 0.0 | 4.8 | 0.00 | 0.00 | 0.00 | 41 | 1008.3 |
| 20260509222834 | 27 | 157 | 0.0 | 1.6 | 0.00 | 0.00 | 0.00 | 40 | 1008.4 |
| 20260509221819 | 27 | 155 | 0.0 | 3.2 | 0.00 | 0.00 | 0.00 | 38 | 1008.4 |
| 20260509220658 | 27 | 192 | 1.6 | 4.8 | 0.00 | 0.00 | 0.00 | 37 | 1008.3 |
| 20260509215512 | 27 | 155 | 1.6 | 8.0 | 0.00 | 0.00 | 0.00 | 39 | 1008.4 |
| 20260509214451 | 27 | 214 | 0.0 | 8.0 | 0.00 | 0.00 | 0.00 | 39 | 1008.3 |
| 20260509213426 | 27 | 204 | 1.6 | 8.0 | 0.00 | 0.00 | 0.00 | 39 | 1008.6 |
| 20260509212441 | 27 | 92 | 1.6 | 8.0 | 0.00 | 0.00 | 0.00 | 43 | 1008.4 |
| 20260509211253 | 28 | 57 | 0.0 | 4.8 | 0.00 | 0.00 | 0.00 | 38 | 1008.4 |
| 20260509210113 | 28 | 128 | 0.0 | 0.0 | 0.00 | 0.00 | 0.00 | 37 | 1008.4 |
| 20260509205022 | 28 | 146 | 0.0 | 8.0 | 0.00 | 0.00 | 0.00 | 39 | 1008.4 |
| 20260509203949 | 28 | 162 | 1.6 | 11.3 | 0.00 | 0.00 | 0.00 | 37 | 1008.5 |
| 20260509202931 | 28 | 177 | 3.2 | 11.3 | 0.00 | 0.00 | 0.00 | 38 | 1008.3 |
| 20260509201909 | 27 | 227 | 1.6 | 9.7 | 0.00 | 0.00 | 0.00 | 38 | 1008.5 |
| 20260509200842 | 27 | 157 | 1.6 | 9.7 | 0.00 | 0.00 | 0.00 | 42 | 1008.6 |
| 20260509195812 | 27 | 78 | 3.2 | 9.7 | 0.00 | 0.00 | 0.00 | 44 | 1008.5 |
| 20260509194804 | 27 | 191 | 0.0 | 8.0 | 0.00 | 0.00 | 0.00 | 42 | 1008.7 |
| 20260509193803 | 27 | 146 | 1.6 | 9.7 | 0.00 | 0.00 | 0.00 | 44 | 1008.7 |
| 20260509192746 | 28 | 169 | 1.6 | 8.0 | 0.00 | 0.00 | 0.00 | 42 | 1008.7 |
| 20260509191655 | 27 | 185 | 0.0 | 8.0 | 0.00 | 0.00 | 0.00 | 45 | 1008.8 |